Regional Weather Roundup
Issued by NWS Green Bay, WI

Home | Current Version | Previous Version | Graphics & Text | Print | Product List | Glossary Off
Versions: 1 2 3 4 5 6 7 8 9 10 11 12 13 14 15 16 17 18 19 20 21 22 23 24 25 26 27 28 29 30 31 32 33 34 35 36 37 38 39 40 41 42 43 44 45 46 47 48 49 50

000
ASUS43 KGRB 210059
RWRGRB

NORTH-CENTRAL AND NORTHEAST WISCONSIN REGIONAL WEATHER ROUNDUP
NATIONAL WEATHER SERVICE GREEN BAY WI
700 PM CST SAT DEC 20 2014

WIZ005-009-010>012-018-019-210200-
NORTH CENTRAL WISCONSIN

CITY           SKY/WX    TMP DP  RH WIND       PRES   REMARKS
IRONWOOD       CLOUDY    30  27  86 S6        30.10S
MANITOWISH WTR NOT AVBL
ARBOR VITAE    NOT AVBL
EAGLE RIVER    NOT AVBL
LAND O LAKES   NOT AVBL
RHINELANDER    CLOUDY    26  24  92 S5        30.15S FOG
PHILLIPS       NOT AVBL
ANTIGO         NOT AVBL
TOMAHAWK       NOT AVBL
MERRILL        NOT AVBL
$$

WIZ013-073-210200-
NORTHEAST WISCONSIN

CITY           SKY/WX    TMP DP  RH WIND       PRES   REMARKS
IRON MOUNTAIN  CLOUDY    27  23  85 SE5       30.18R
MARINETTE      CLOUDY    28  25  86 CALM      30.23R
$$

WIZ017-030-035>037-045-210200-
CENTRAL WISCONSIN

CITY           SKY/WX    TMP DP  RH WIND       PRES   REMARKS
MEDFORD        NOT AVBL
WAUSAU         CLOUDY    29  24  82 SE5       30.17R
MOSINEE        NOT AVBL
MARSHFIELD     CLOUDY    30  25  81 S8        30.17R
WISC RAPIDS    CLOUDY    30  24  78 S6        30.21S
STEVENS POINT  NOT AVBL
WAUPACA        NOT AVBL
SHAWANO        NOT AVBL
CLINTONVILLE   NOT AVBL
$$

WIZ038-039-048-051-210200-
FOX VALLEY

CITY           SKY/WX    TMP DP  RH WIND       PRES   REMARKS
NWS GREEN BAY  CLOUDY    30  26  85 CALM      30.24R FOG
APPLETON       CLOUDY    27  25  93 VRB3      30.23R FOG
OSHKOSH        PTCLDY    26  23  88 S3        30.23R FOG
FOND DU LAC    CLOUDY    28  24  85 CALM      30.23R
$$

WIZ022-050-052-210200-
EAST CENTRAL WISCONSIN

CITY           SKY/WX    TMP DP  RH WIND       PRES   REMARKS
STURGEON BAY   MOCLDY    25  19  80 CALM      30.24S
MANITOWOC      NOT AVBL
SHEBOYGAN      CLOUDY    28  26  92 SW3       30.24R FOG
$$

LMZ563-521-522-541>543-210200-
LAKESHORE

STATION/POSITION TIME  TEMP    WIND        PRES    VSBY  WAVE
                       AIR SEA DIR/SP/G                  HT/PER
                 (UTC) (F)     (DEG/KT/KT) (MB)    (MI)  (FT/S)
SHEBOYGAN LKSHOR 0000   31 34  280/  4/  5 1024.9S
KEWAUNEE LKSHORE 0000   27      CALM  /  3 1022.8F
ALGOMA MARINA    0000             CALM       N/A
NORTHPORT PIER   0000   29        CALM     1023.7F
CHAMBERS ISLAND  0000   28      CALM  /  1 1024.0S
MENOMINEE LKSHOR 0000   29     170/  2/  3 1024.2F
$$


USA.gov is the U.S. government's official web portal to all federal, state and local government web resources and services.